Pueblo, CO

4:23 AM MDT on April 26, 2017 (GMT -0600)
Pueblo Memorial

Weather History for KPUB - January, 1999

Change the Weather History Date:

Friday, January 1, 1999

  Actual Average Record
Temperature  
Mean Temperature 38 °F 30 °F  
Max Temperature 50 °F 46 °F 71 °F (1918)
Min Temperature 27 °F 14 °F -23 °F (1901)
Degree Days  
Heating Degree Days 26 35  
Month to date heating degree days 35  
Since 1 July heating degree days 2398  
Cooling Degree Days 0 0  
Month to date cooling degree days 0  
Year to date cooling degree days 0  
Moisture  
Dew Point 26 °F    
Average Humidity 73    
Maximum Humidity 96    
Minimum Humidity 41    
Precipitation  
Precipitation 0.00 in 0.01 in 0.45 in (1897)
Month to date precipitation 0.01  
Year to date precipitation 0.01  
Snow  
Snow 0.00 in 0.20 in 4.00 in (1897)
Month to date snowfall 0.2  
Since 1 July snowfall 11.7  
Snow Depth -    
Sea Level Pressure  
Sea Level Pressure 29.92 in    
Wind  
Wind Speed 8 mph (NNE)    
Max Wind Speed 31 mph    
Max Gust Speed 37 mph    
Visibility 8 miles    
Events Snow    
T = Trace of Precipitation, MM = Missing Value Source: NWS Daily Summary

Daily Weather History Graph

Daily Weather History Graph

Search for Another Location

Airport or City:

Trip Planner

Search our weather history database for the weather conditions in past years. The results will help you decide how hot, cold, wet, or windy it might be!

Date:

Astronomy

Jan. 01, 1999 Rise Set
Actual Time 7:14 AM MST 4:48 PM MST
Civil Twilight 6:45 AM MST 5:17 PM MST
Nautical Twilight 6:12 AM MST 5:50 PM MST
Astronomical Twilight 5:40 AM MST 6:23 PM MST
Moon 4:48 PM MST (1/1) 6:32 AM MST (1/1)
Length of Visible Light 10h 32m
Length of Day
9h 33m
Full, 100% of the Moon is Illuminated
Jan 1
Full
Jan 1
Full
Jan 9
Last Quarter
Jan 17
New
Jan 24
First Quarter

Hourly Weather History & Observations

Time (MST) Temp. Windchill Dew Point Humidity Pressure Visibility Wind Dir Wind Speed Gust Speed Precip Events Conditions
12:54 AM 28.9 °F - 27.0 °F 92% 29.65 in 10.0 mi Calm Calm - N/A   Clear
1:54 AM 27.0 °F - 24.1 °F 89% 29.64 in 9.0 mi Calm Calm - N/A   Clear
2:54 AM 30.0 °F - 27.0 °F 88% 29.63 in 10.0 mi Calm Calm - N/A   Clear
3:54 AM 28.9 °F 23.9 °F 27.0 °F 92% 29.64 in 8.0 mi SSW 4.6 mph - N/A   Overcast
4:54 AM 28.9 °F 25.2 °F 28.0 °F 96% 29.65 in 9.0 mi SSW 3.5 mph - N/A   Overcast
5:54 AM 30.0 °F 26.5 °F 28.0 °F 92% 29.69 in 9.0 mi East 3.5 mph - N/A   Overcast
6:54 AM 28.9 °F 22.8 °F 28.0 °F 96% 29.74 in 6.0 mi ENE 5.8 mph - N/A   Overcast
7:54 AM 28.9 °F 23.9 °F 28.0 °F 96% 29.78 in 7.0 mi ENE 4.6 mph - N/A   Overcast
8:54 AM 30.0 °F 24.1 °F 28.9 °F 96% 29.82 in 7.0 mi ENE 5.8 mph - N/A   Overcast
9:54 AM 32.0 °F 27.5 °F 30.0 °F 92% 29.85 in 8.0 mi WSW 4.6 mph - 0.00 in   Mostly Cloudy
10:54 AM 36.0 °F 32.1 °F 32.0 °F 86% 29.85 in 10.0 mi SSW 4.6 mph - N/A   Scattered Clouds
11:54 AM 48.9 °F - 30.9 °F 50% 29.80 in 10.0 mi North 26.5 mph 33.4 mph N/A   Clear
12:54 PM 48.9 °F - 28.0 °F 44% 29.79 in 10.0 mi North 29.9 mph 36.8 mph N/A   Clear
1:54 PM 50.0 °F - 27.0 °F 41% 29.80 in 10.0 mi North 28.8 mph 34.5 mph N/A   Clear
2:54 PM 48.0 °F - 27.0 °F 44% 29.82 in 10.0 mi North 31.1 mph 36.8 mph N/A   Overcast
3:54 PM 45.0 °F 36.4 °F 28.0 °F 52% 29.87 in 10.0 mi North 23.0 mph 29.9 mph N/A   Overcast
4:54 PM 42.1 °F 33.9 °F 28.0 °F 58% 29.94 in 10.0 mi North 17.3 mph 25.3 mph N/A   Overcast
5:54 PM 39.9 °F 31.1 °F 28.0 °F 63% 29.99 in 10.0 mi North 17.3 mph - N/A   Overcast
6:54 PM 39.0 °F 32.3 °F 27.0 °F 62% 30.04 in 10.0 mi NNE 10.4 mph - N/A   Overcast
7:54 PM 37.0 °F 28.9 °F 25.0 °F 62% 30.07 in 10.0 mi North 12.7 mph 19.6 mph N/A   Overcast
8:21 PM 37.4 °F 33.8 °F 24.8 °F 60% 30.05 in 10.0 mi NNE 4.6 mph - N/A   Overcast
8:42 PM 37.4 °F 31.4 °F 26.6 °F 65% 30.07 in 10.0 mi North 8.1 mph - N/A   Overcast
8:54 PM 36.0 °F 28.5 °F 24.1 °F 62% 30.12 in 10.0 mi North 10.4 mph - N/A   Overcast
9:21 PM 33.8 °F 22.5 °F 24.8 °F 70% 30.09 in 2.0 mi North 19.6 mph 31.1 mph 0.00 in Snow Light Snow
9:42 PM 32.0 °F 20.8 °F 24.8 °F 75% 30.11 in 3.0 mi North 17.3 mph - 0.00 in Snow Light Snow
9:54 PM 32.0 °F 22.1 °F 23.0 °F 69% 30.17 in 5.0 mi NNE 13.8 mph - 0.00 in Snow Light Snow
10:07 PM 32.0 °F 24.2 °F 23.0 °F 69% 30.12 in 5.0 mi NNE 9.2 mph - 0.00 in Snow Light Snow
10:39 PM 32.0 °F 23.0 °F 21.2 °F 64% 30.13 in 8.0 mi NNE 11.5 mph - 0.00 in Snow Light Snow
10:54 PM 32.0 °F 24.2 °F 23.0 °F 69% 30.17 in 8.0 mi NNE 9.2 mph - 0.00 in Snow Light Snow
11:15 PM 30.2 °F 23.4 °F 24.8 °F 80% 30.14 in 2.0 mi North 6.9 mph - 0.00 in Snow Light Snow
11:23 PM 30.2 °F 24.3 °F 24.8 °F 80% 30.14 in 3.0 mi NE 5.8 mph - 0.00 in Snow Light Snow
11:54 PM 30.0 °F 21.7 °F 21.9 °F 72% 30.14 in 9.0 mi North 9.2 mph - 0.00 in Snow Light Snow